Hourly Data Report for November 13, 2019

SATURNA ISLAND CS
BRITISH COLUMBIA
Current Station Operator: ECCC - MSC

48°47'02.067" N
123°02'41.082" W
24.40 m
1017101
71473
WEZ

Download Data

Hourly Data (November 2019)
Hourly Data Report for November 13, 2019
TIME
LST
Temp Definition
°C
Dew Point Definition
°C
Rel Hum Definition
%
Precip. Amount Definition
mm

Wind Dir Definition
10's deg

Wind Spd Definition
km/h
Visibility Definition
km
Stn Press Definition
kPa
Hmdx Definition


Wind Chill Definition


Weather Definition


00:00 9.4 8.9 97 0.0 24 4   101.87     LegendNANA
01:00 9.4 8.9 97 0.0 25 6   101.87     LegendNANA
02:00 9.3 8.9 97 0.0 0 1   101.90     LegendNANA
03:00 9.2 8.8 97 0.0 28 1   101.92     LegendNANA
04:00 9.2 8.8 98 0.0 31 5   101.88     LegendNANA
05:00 9.2 8.9 98 0.0 33 4   101.90     LegendNANA
06:00 9.2 8.9 98 0.0 36 4   101.89     LegendNANA
07:00 9.2 8.9 98 0.0 33 4   101.87     LegendNANA
08:00 9.3 9.0 98 0.0 3 10   101.88     LegendNANA
09:00 9.6 9.3 98 0.0 0 1   101.91     LegendNANA
10:00 9.8 9.4 98 0.0 35 6   101.89     LegendNANA
11:00 10.1 9.4 96 0.0 33 4   101.88     LegendNANA
12:00 10.3 8.6 90 0.0 35 8   101.83     LegendNANA
13:00 9.7 8.7 94 0.0 1 11   101.73     LegendNANA
14:00 9.8 8.7 93 0.0 29 3   101.67     LegendNANA
15:00 9.4 8.3 93 0.0 30 4   101.64     LegendNANA
16:00 9.3 8.3 93 0.0 31 2   101.62     LegendNANA
17:00 8.9 8.2 95 0.0 32 8   101.55     LegendNANA
18:00 8.8 8.2 96 0.0 32 6   101.51     LegendNANA
19:00 8.8 8.3 97 0.0 32 5   101.47     LegendNANA
20:00 8.6 8.1 97 0.0 31 5   101.46     LegendNANA
21:00 8.7 8.2 97 0.0 32 8   101.46     LegendNANA
22:00 8.7 8.2 97 0.0 29 4   101.46     LegendNANA
23:00 8.6 8.2 97 0.0 31 5   101.46     LegendNANA

Notes on Data Quality.

Legend

  • E = Estimated
  • M = Missing
  • NA = Not Available*
  • [empty] = Indicates an unobserved value
Date modified: